Location: *
(37.4917°N, 71.5558°E)
Time: 08:29:31
(UTC+00:00)

SL-16 R/B - Pass Details

Date: 09 April 2020
Orbit: 840 x 849 km, 71.0° (Epoch: 03 June)

Event Time Altitude Azimuth Distance (km) Brightness Sun altitude
Rises 21:40:03 0° 345° (NNW) 3,405 5.7 -33.3°
Reaches altitude 10° 21:42:40 10° 353° (N) 2,468 5.0 -32.9°
Maximum altitude 21:47:58 40° 62° (ENE) 1,231 3.4 -32.2°
Drops below altitude 10° 21:53:15 10° 131° (SE) 2,460 4.7 -31.4°
Sets 21:55:50 0° 139° (SE) 3,393 5.3 -31.0°
